Location: Saint-Hippolyte
(43.6394°N, 4.7559°E)
Time: 13:22:01
(UTC+00:00)

Cosmos 1300 - Pass Details

Date: 24 October 2020
Orbit: 511 x 513 km, 82.5° (Epoch: 24 November)

Event Time Altitude Azimuth Distance (km) Brightness Sun altitude
Rises 18:23:59 0° 207° (SSW) 2,615 6.6 -18.9°
Reaches altitude 10° 18:26:14 10° 216° (SW) 1,734 5.8 -19.3°
Maximum altitude 18:29:45 35° 283° (WNW) 843 4.3 -20.0°
Drops below altitude 10° 18:33:18 10° 351° (N) 1,749 5.5 -20.6°
Sets 18:35:34 0° 0° (N) 2,640 6.3 -21.0°
